Regional Weather Roundup
Issued by NWS

Home | Current Version | Previous Version | Text Only | Print | Product List | Glossary Off
Versions: 1 2 3 4 5 6 7 8 9 10 11 12 13 14 15 16 17 18 19 20 21 22 23 24 25 26 27 28 29 30 31 32 33 34 35 36 37 38 39 40 41 42 43 44 45 46 47 48 49 50

000
ASUS43 KDTX 232010
RWRMI
MICHIGAN HOURLY REGIONAL WEATHER ROUNDUP
NATIONAL WEATHER SERVICE DETROIT/PONTIAC MI
400 PM EDT THU OCT 23 2014

NOTE: "FAIR" INDICATES FEW OR NO CLOUDS BELOW 12,000 FEET WITH NO
SIGNIFICANT WEATHER AND/OR OBSTRUCTION TO VISIBILITY.

MIZ047>049-052>055-059>063-066>070-074>076-081>083-232100-
SOUTHEAST LOWER MICHIGAN

CITY           SKY/WX    TMP DP  RH WIND       PRES   REMARKS
ADRIAN         SUNNY     57  38  48 W5        30.15F
ALMA           SUNNY     55  36  49 S3        30.15F
ANN ARBOR      MOSUNNY   58  37  45 CALM      30.14F
BAD AXE        SUNNY     49  41  72 CALM      30.16F
DETROIT CITY   SUNNY     60  38  43 VRB6      30.14F
DETROIT        PTSUNNY   59  39  47 SW6       30.14F
FLINT          MOSUNNY   57  40  52 CALM      30.14F
GROSSE ILE     SUNNY     54  46  76 S8        30.13F
HILLSDALE      SUNNY     58  38  46 W5        30.14F
HOWELL         MOSUNNY   55  38  51 SW5       30.14F

CITY           SKY/WX    TMP DP  RH WIND       PRES   REMARKS
JACKSON        SUNNY     57  36  45 W6        30.14F
LAMBERTVILLE   MOSUNNY   59  39  47 W5        30.15F
LANSING        SUNNY     55  34  45 CALM      30.16F
LAPEER         NOT AVBL
MASON          SUNNY     55  40  56 CALM      30.14F
MONROE         MOSUNNY   61  41  48 NW6       30.13F
MT. CLEMENS    MOSUNNY   59  38  44 S5        30.11F
PONTIAC        MOSUNNY   57  37  47 W7        30.13F
PORT HOPE        N/A     50  39  66 SW6       30.14F
PORT HURON     SUNNY     57  39  51 W3        30.14F
TRI CITIES     MOSUNNY   53  37  54 SW6       30.16F
YPSILANTI      MOSUNNY   62  38  40 VRB6      30.15F
$$
MIZ043>046-050>051-056>058-064>065-071>073-077>080-232100-
SOUTHWEST LOWER MICHIGAN

CITY           SKY/WX    TMP DP  RH WIND       PRES   REMARKS
BATTLE CREEK   SUNNY     56  36  47 VRB5      30.16F
BENTON HARBOR  MOSUNNY   56  41  57 S7        30.12F
BIG RAPIDS     SUNNY     56  42  61 SW7       30.13F
COLDWATER      SUNNY     58  38  46 SW6       30.15F
HOLLAND        SUNNY     57  42  57 VRB7      30.13F
GRAND RAPIDS   MOSUNNY   59  40  49 NW5       30.15F
KALAMAZOO      SUNNY     58  36  43 CALM      30.15F
MARSHALL       SUNNY     56  35  45 CALM      30.14F
MUSKEGON       PTSUNNY   56  42  59 SW13      30.13F
$$
MIZ016>042-232100-
NORTHERN LOWER MICHIGAN

CITY           SKY/WX    TMP DP  RH WIND       PRES   REMARKS
ALPENA         SUNNY     51  39  63 SE13      30.13F
BEAVER ISLAND  PTSUNNY   54  45  71 SW7       30.11F
BELLAIRE       MOSUNNY   56  36  46 CALM      30.12F
CADILLAC       SUNNY     54  42  63 S3        30.11S
CHARLEVOIX     PTSUNNY   54  43  65 E5        30.14F
FRANKFORT      CLEAR     55  38  54 SW7       30.10F
GAYLORD        MOSUNNY   53  32  44 SE3       30.11F
GRAYLING       MOSUNNY   54  35  47 S3        30.14S
HARBOR SPRINGS PTSUNNY   56  34  44 CALM      30.12S
HOUGHTON LAKE  MOSUNNY   50  36  58 VRB3      30.14F
OSCODA         SUNNY     51  37  59 SW8       30.14F
TRAVERSE CITY  PTSUNNY   58  40  51 VRB3      30.10F
$$
MIZ007>008-015-232100-
EASTERN UPPER MICHIGAN

CITY           SKY/WX    TMP DP  RH WIND       PRES   REMARKS
KINROSS        MOSUNNY   54  32  43 S7        30.11F
MACKINAC ISLAN MOSUNNY   48  40  72 CALM      30.12F
NEWBERRY       CLOUDY    49  42  77 S12G18    30.09F
S. S. MARIE    MOSUNNY   52  38  58 E6        30.09F
$$
MIZ004>006-011>014-085-232100-
CENTRAL UPPER MICHIGAN

CITY           SKY/WX    TMP DP  RH WIND       PRES   REMARKS
MANISTIQUE     PTSUNNY   51  47  84 S10G18    30.08F
ESCANABA       CLOUDY    52  45  76 S9        30.05F
MENOMINEE      CLOUDY    52  43  71 SW9       30.06S
SAWYER-GWINN   CLOUDY    50  41  71 S13G18    30.02F
$$
MIZ001>003-009>011-084-232100-
WESTERN UPPER MICHIGAN

CITY           SKY/WX    TMP DP  RH WIND       PRES   REMARKS
IRON MOUNTAIN  LGT RAIN  45  42  89 S6        30.03F
HOUGHTON       LGT RAIN  47  44  90 S7        29.98S FOG
COPPER HARBOR    N/A     48  45  89 SW3       29.99S
IRONWOOD       CLOUDY    48  46  93 S6        29.95S
$$

ABBREVIATIONS USED IN REMARKS
   TC - TEMPERATURE IN CELSIUS
  WCI - WIND CHILL INDEX
   HX - HEAT INDEX
  VSB - VISIBILITY




USA.gov is the U.S. government's official web portal to all federal, state and local government web resources and services.